AirNav   ATP
 
 396 users online  

C53 Lower Loon Creek Airport
Challis, Idaho, USA

GOING TO CHALLIS?


FAA INFORMATION EFFECTIVE 19 JULY 2018

Location

FAA Identifier: C53
Lat/Long: 44-48-31.2163N / 114-48-31.1756W
44-48.520272N / 114-48.519593W
44.8086712 / -114.8086599
(estimated)
Elevation: 4200 ft. / 1280 m (estimated)
Variation: 17E (1990)
From city: 30 miles SW of CHALLIS, ID
Time zone: UTC -6 (UTC -7 during Standard Time)
Zip code: 83469

Airport Operations

Airport use: Open to the public
Activation date: 11/1992
Control tower: no
ARTCC: SALT LAKE CITY CENTER
FSS: BOISE FLIGHT SERVICE STATION
NOTAMs facility: BOI (NOTAM-D service available)
Attendance: UNATNDD
Wind indicator: yes
Segmented circle: no

Airport Communications

CTAF: 122.9

Nearby radio navigation aids

VOR radial/distance  VOR name  Freq  Var
LKTr234/33.3SALMON VOR/DME113.5013E

Airport Services

Parking: tiedowns
Airframe service: NONE
Powerplant service: NONE
Bottled oxygen: NONE
Bulk oxygen: NONE

Runway Information

Runway 16/34

Dimensions: 1200 x 25 ft. / 366 x 8 m
Surface: turf/dirt, in fair condition
RUNWAY 16  RUNWAY 34
Latitude: 44-48.618877N44-48.421667N
Longitude: 114-48.526852W114-48.512333W
Elevation: 4084.0 ft.4098.0 ft.
Gradient: 1.2% UP
Traffic pattern: leftleft
Obstructions: 4 ft. fence, 75 ft. left of centerline40 ft. brush, 50 ft. from runway, 75 ft. right of centerline, 1:1 slope to clear

Airport Ownership and Management from official FAA records

Ownership: Publicly-owned
Owner: IDAHO DEPT OF FISH AND GAME
600 S. WALNUT
BOISE, ID 83707
Phone 208-334-3771
Manager: TOM CURET
PO BOX 25
BOISE, ID 83707
Phone 208-756-2271

Airport Operational Statistics

Aircraft operations: avg 38/month *
56% air taxi
44% transient general aviation
* for 12-month period ending 31 May 2017

Additional Remarks

ARPT LCTD ON A PLATEAU 50 FT TO 75 FT ABOVE THE RIVER.
RY NOT MARKED.
RECOMMEND LAND RY 16; DEPART RY 34 WHEN WIND CONDITIONS ALLOW.
NO WINTER MAINT.
STOCK AND BIG GAME ANIMALS INVOF RY.
RODENT ACTIVITY ADJACENT BOTH SIDES OF RY.
LCTD IN NARROW WINDING RIVER CANYON.

Instrument Procedures

There are no published instrument procedures at C53.

Some nearby airports with instrument procedures:

KSMN - Lemhi County Airport (44 nm NE)
KMYL - Mc Call Municipal Airport (55 nm W)
KSUN - Friedman Memorial Airport (81 nm S)
KGIC - Idaho County Airport (88 nm NW)
6S5 - Ravalli County Airport (91 nm N)
 
Loc | Ops | Rwys | IFR | FBO | Links
Com | Nav | Svcs | Stats | Notes


 
Area around C53 (Lower Loon Creek Airport)
 
Road maps at: MapQuest Bing Google
 
Aerial photo
WARNING: Photo may not be current or correct
Aerial photo of C53 (Lower Loon Creek Airport)
Photo taken 05-Jul-2008

Do you have a better or more recent aerial photo of Lower Loon Creek Airport that you would like to share? If so, please send us your photo.

 
Sectional chart

 
Airport distance calculator
Flying to Lower Loon Creek Airport? Find the distance to fly.

From to C53

Sunrise and sunset
Times for 23-Jul-2018
 Local
(UTC-6)
 Zulu
(UTC)
Morning civil twilight05:4211:42
Sunrise06:1612:16
Sunset21:1503:15
Evening civil twilight21:5003:50

Current date and time
Zulu (UTC)  23-Jul-2018 06:42:59
Local (UTC-6)  23-Jul-2018 00:42:59
 
METAR
KLLJ 
31nm SE 
230555Z AUTO 34004KT 10SM CLR 19/M03 A3026 RMK AO2 SLP179 T01891028 10339 20178 51022 $
KSNT 
39nm S 
230551Z AUTO 17004KT 08/M07 A3040 RMK AO1 SLP202 T00831072 10283 20083 51017
KSMN 
44nm NE 
230556Z AUTO 13003KT 10SM CLR 20/01 A3022 RMK AO2 SLP201 6//// T02000011 10311 20200 51024 PNO $
TAF
KSMN 
44nm NE 
230523Z 2306/2406 VRB03KT P6SM FEW250 FM232000 35006KT P6SM SCT150 FM240200 VRB05KT P6SM SCT150
NOTAMs
Click for the latest NOTAMs
NOTAMs are issued by the DoD/FAA and will open in a separate window not controlled by AirNav.

 

 
 

Would you like to see your business listed on this page?

 If your business provides an interesting product or service to pilots, flight crews, aircraft, or users of the Lower Loon Creek Airport, you should consider listing it here.  To start the listing process, click on the button below
 
Add a business
 

Other Pages about Lower Loon Creek Airport

www.flyidaho.org/...
 
Update a link
 
Copyright © AirNav, LLC. All rights reserved. Privacy Policy  Contact